This demonstration page uses our WeatherBlox Daily Observations layout. Learn more.

38.88101, -77.10428

Hourly Observations for June 29, 2016

Temp ( °F °C ) Dew Point ( °F °C ) Humidity (%) Winds ( mph kmh ) Pressure ( in mb ) Visibility ( mi km ) Precip ( " mm )
12:20 am 00:20 Cloudy 70 21 66 19 88 88 SW 6 9 29.91 1013 10 16.0934 0 0
12:34 am 00:34 Mostly Clear 70 21 66 19 88 88 SSW 6 9 29.91 1013 10 16.0934 0 0
12:52 am 00:52 Mostly Clear 69 20.6 67 19.4 93 93 WSW 6 9 29.89 1012 10 16.0934 0 0
1:52 am 01:52 Partly Cloudy 69 20.6 66 18.9 90 90 WNW 3 6 29.88 1012 10 16.0934 0 0
2:52 am 02:52 Mostly Clear 69 20.6 66 18.9 90 90 N 5 7 29.89 1012 10 16.0934 0 0
3:52 am 03:52 Clear 69 20.6 66 18.9 90 90 N 6 9 29.89 1012 10 16.0934 0 0
4:32 am 04:32 Mostly Clear 70 21 66 19 88 88 NNW 8 13 29.88 1012 10 16.0934 0 0
4:52 am 04:52 Mostly Clear 69 20.6 66 18.9 90 90 NNW 8 13 29.89 1012 10 16.0934 0 0
5:52 am 05:52 Mostly Sunny 69 20.6 66 18.9 90 90 N 8 13 29.91 1013 10 16.0934 0 0
6:52 am 06:52 Mostly Sunny 70 21.1 64 17.8 82 82 NNW 13 20 29.93 1014 10 16.0934 0 0
7:52 am 07:52 Mostly Sunny 72 22.2 64 17.8 76 76 NNW 10 17 29.94 1014 10 16.0934 0 0
8:52 am 08:52 Mostly Sunny 75 23.9 63 17.2 66 66 N 13 20 29.95 1014 10 16.0934 0 0
9:52 am 09:52 Mostly Sunny 77 25 62 16.7 60 60 N 7 11 29.95 1014 10 16.0934 0 0
10:52 am 10:52 Mostly Sunny 79 26.1 61 16.1 54 54 NNW 8 13 29.95 1014 10 16.0934 0 0
11:52 am 11:52 Partly Cloudy 81 27.2 60 15.6 49 49 NNW 12 19 29.95 1014 10 16.0934 0 0
12:52 pm 12:52 Partly Cloudy 81 27.2 60 15.6 49 49 NNW 13 20 29.94 1014 10 16.0934 0 0
1:52 pm 13:52 Partly Cloudy 81 27.2 60 15.6 49 49 WNW 16 26 29.95 1014 10 16.0934 0 0
2:52 pm 14:52 Partly Cloudy 80 26.7 59 15 49 49 NNW 16 26 29.95 1014 10 16.0934 0 0
3:52 pm 15:52 Mostly Cloudy 81 27.2 58 14.4 45 45 NNW 17 28 29.95 1014 10 16.0934 0 0
4:52 pm 16:52 Partly Cloudy 81 27.2 56 13.3 42 42 NW 13 20 29.95 1014 10 16.0934 0 0
5:52 pm 17:52 Mostly Sunny 81 27.2 56 13.3 42 42 NNW 16 26 29.95 1014 10 16.0934 0 0
6:52 pm 18:52 Mostly Sunny 80 26.7 55 12.8 42 42 NNW 14 22 29.96 1015 10 16.0934 0 0
7:52 pm 19:52 Mostly Sunny 78 25.6 56 13.3 47 47 N 14 22 29.96 1015 10 16.0934 0 0
8:52 pm 20:52 Mostly Clear 76 24.4 55 12.8 48 48 NNW 14 22 29.98 1015 10 16.0934 0 0
9:52 pm 21:52 Clear 74 23.3 56 13.3 54 54 NNW 8 13 30 1016 10 16.0934 0 0
10:52 pm 22:52 Mostly Clear 72 22.2 55 12.8 55 55 NNW 9 15 30.02 1017 10 16.0934 0 0
11:52 pm 23:52 Clear 70 21.1 55 12.8 59 59 NNW 5 7 30.02 1017 10 16.0934 0 0

Powered by AerisWeather